User: anonymous   Login
Location: Bois de la Silve
(44.4667°N, 6.7833°E)
Time: 05:47:49
(UTC+00:00)
Language:

Sich 1 Rocket - Orbit

View from above orbital plane
View from above orbital plane
View from above satellite
View from above satellite

Ground track
Ground track

The orbit data is extracted from the following two-line orbital elements,

1 23659U 95046C   20273.51718980 +.00000101 +00000-0 +10708-4 0  9994
2 23659 082.5271 271.6206 0024070 267.3321 207.6571 14.78346979351569
Epoch (UTC): 29 September 2020 12:24:45
Eccentricity: 0.0024070
inclination: 82.5271°
perigee height: 617 km
apogee height: 651 km
right ascension of ascending node: 271.6206°
argument of perigee: 267.3321°
revolutions per day: 14.78346979
mean anomaly at epoch: 207.6571°
orbit number at epoch: 35156

The dashed part of the orbit path shows where the satellite is in the earth's shadow,  

DLR